Regional Weather Roundup
Issued by NWS Albany, NY

Home | Current Version | Previous Version | Graphics & Text | Print | Product List | Glossary Off
Versions: 1 2 3 4 5 6 7 8 9 10 11 12 13 14 15 16 17 18 19 20 21 22 23 24 25 26 27 28 29 30 31 32 33 34 35 36 37 38 39 40 41 42 43 44 45 46 47 48 49 50

214
ASUS41 KALY 221810
RWRALY

NEW YORK STATE HOURLY WEATHER ROUNDUP
NATIONAL WEATHER SERVICE ALBANY NY
200 PM EDT WED MAR 22 2017

NOTE: "FAIR" INDICATES FEW OR NO CLOUDS BELOW 12,000 FEET WITH NO
SIGNIFICANT WEATHER AND/OR NO OBSTRUCTIONS TO VISIBILITY.

NYZ032-033-038>043-046>054-057>066-NYZ062>081-082-084-221900-
EAST


CITY           SKY/WX    TMP DP  RH WIND       PRES   REMARKS
ALBANY         MOSUNNY   25  -1  32 W21G32    30.23R WCI  11
GLENS FALLS    MOSUNNY   21  -7  28 NW23G39   30.23R WCI   5
POUGHKEEPSIE   SUNNY     28  -5  23 NW21G35   30.20R WCI  15
NEWBURGH       SUNNY     28   3  34 NW23G35   30.19R WCI  14
MONTGOMERY     SUNNY     28  -6  22 NW24G41   30.20R WCI  14
WHITE PLAINS   SUNNY     31  -1  25 NW23G43   30.14R WCI  18
ISLIP          MOSUNNY   36   0  21 N29G41    30.12R WCI  23
NEW YORK CITY  SUNNY     35   6  29 NW33G41   30.17S WCI  21
CENTRAL PARK   SUNNY     32  -3  22 NW10G30   30.21R WCI  24
$$

NYZ005>009-017-018-044>046-055-056-221900-
CENTRAL


CITY           SKY/WX    TMP DP  RH WIND       PRES   REMARKS
FULTON         SUNNY     20   0  41 NW18G31   30.43R WCI   5
SYRACUSE       MOSUNNY   20   1  43 NW23      30.42R WCI   3
ROME           SUNNY     19   0  43 W22G30    30.37R WCI   2
ELMIRA         SUNNY     27   1  32 N17G31    30.35S WCI  14
BINGHAMTON     CLOUDY    18   2  49 NW20G31   30.26R WCI   2
MONTICELLO     SUNNY     21   0  39 NW22G37   30.18S WCI   5
$$

NYZ026>034-041>043-087-221900-
NORTH


CITY           SKY/WX    TMP DP  RH WIND       PRES   REMARKS
WATERTOWN      SUNNY     18  -2  41 NW13      30.43R WCI   5
FORT DRUM      NOT AVBL
MASSENA        NOT AVBL
SARANAC LAKE   MOSUNNY   10  -7  46 NW9G20    30.17S WCI  -3
PLATTSBURGH    SUNNY     15  -5  40 NW20G31   30.29R WCI  -2
$$

NYZ001>004-010>016-019>021-085-221900-
WEST


CITY           SKY/WX    TMP DP  RH WIND       PRES   REMARKS
NIAGARA FALLS  SUNNY     26   3  37 NW14G22   30.51R WCI  14
BUFFALO        MOSUNNY   24   2  38 NW12G22   30.49R WCI  13
DUNKIRK        SUNNY     24   7  48 NW12      30.53R WCI  13
JAMESTOWN      SUNNY     21   1  42 NW10G21   30.40R WCI  10
WELLSVILLE     SUNNY     23   0  36 NW17G26   30.31S WCI   9
ROCHESTER      MOSUNNY   22   3  44 NW14G24   30.46S WCI   9
PENN YAN       MOSUNNY   22   2  42 NW16G24   30.39R WCI   8
$$

             KEY
       WCI = WIND CHILL INDEX
       VSB = VISIBILITY
       HX  = HEAT INDEX
$$




USA.gov is the U.S. government's official web portal to all federal, state and local government web resources and services.